Location: Newark
(37.8333°N, 119.5000°W)
Time: 12:18:26
(UTC+00:00)

Tiros 1 despin weight - Pass Details

Date: 23 August 2019
Orbit: 595 x 642 km, 48.2° (Epoch: 15 September)

Event Time Altitude Azimuth Distance (km) Brightness Sun altitude
Rises 12:03:07 0° 305° (NW) 2,878 - -15.0°
Exits shadow 12:03:24 - 306° (NW) 2,769 ? -14.9°
Reaches altitude 10° 12:05:30 10° 312° (NW) 1,979 ? -14.6°
Maximum altitude 12:09:52 44° 25° (NNE) 860 ? -13.8°
Drops below altitude 10° 12:14:17 10° 98° (E) 2,002 ? -13.0°
Sets 12:16:42 0° 105° (ESE) 2,915 ? -12.6°
